Location: Lake Crest
(37.6062°N, 88.9176°W)
Time: 21:36:48
(UTC+00:00)

STARLINK-70 - Pass Details

Date: 15 December 2019
Orbit: 529 x 530 km, 53.0° (Epoch: 19 January)

Event Time Altitude Azimuth Distance (km) Brightness Sun altitude
Rises 23:45:27 0° 200° (SSW) 2,650 7.7 -13.0°
Reaches altitude 10° 23:47:51 10° 188° (S) 1,767 6.6 -13.4°
Maximum altitude 23:51:17 28° 129° (SE) 1,022 4.7 -14.1°
Enters shadow 23:52:41 22° 95° (E) 1,180 4.8 -14.4°
